IK4NOW-13 Weather Reports


time (UTC)temp
F
wind
direction
speed
knots
gust
knots
rain 1hr
in
rain 24hr
in
rain mn
in
humidity
%
barometer
mb
20260507100407 73 0.0 0.0 0.00 0.00 0.00 54 1014.4
20260507091902 72 0.0 0.0 0.00 0.00 0.00 56 1014.5
20260507083356 72 0.0 0.0 0.00 0.00 0.00 56 1014.4
20260507074851 71 0.0 0.0 0.00 0.00 0.00 59 1014.2
20260507070346 72 0.0 0.0 0.00 0.00 0.00 60 1014.2
20260507061840 74 0.0 0.0 0.00 0.00 0.00 62 1013.9
20260507053335 60 0.0 0.0 0.00 0.00 0.00 64 1013.7
20260507044830 57 0.0 0.0 0.00 0.00 0.00 62 1013.4
20260507040326 57 0.0 0.0 0.00 0.00 0.00 63 1012.8
20260507031820 58 0.0 0.0 0.00 0.00 0.00 62 1012.5
20260507023314 58 0.0 0.0 0.00 0.00 0.00 62 1012.5
20260507014809 58 0.0 0.0 0.00 0.00 0.00 62 1012.6
20260507010304 59 0.0 0.0 0.00 0.00 0.00 63 1012.4
20260507001759 60 0.0 0.0 0.00 0.00 0.00 63 1012.5
20260506233254 60 0.0 0.0 0.00 0.00 0.00 63 1012.8
20260506224749 60 0.0 0.0 0.00 0.00 0.00 63 1012.7
20260506220245 60 0.0 0.0 0.00 0.00 0.00 63 1012.6
20260506211738 60 0.0 0.0 0.00 0.00 0.00 63 1012.5
20260506203233 61 0.0 0.0 0.00 0.00 0.00 63 1012.3
20260506194727 61 0.0 0.0 0.00 0.00 0.00 63 1012.0
20260506190222 62 0.0 0.0 0.00 0.00 0.00 63 1011.4
20260506181716 63 0.0 0.0 0.00 0.00 0.00 62 1011.1
20260506173211 64 0.0 0.0 0.00 0.00 0.00 61 1010.6
20260506164706 66 0.0 0.0 0.00 0.00 0.00 61 1010.2
20260506160201 67 0.0 0.0 0.00 0.00 0.00 60 1010.3
20260506151656 66 0.0 0.0 0.00 0.00 0.00 61 1010.4
20260506143150 75 0.0 0.0 0.00 0.00 0.00 56 1009.7
20260506134645 74 0.0 0.0 0.00 0.00 0.00 57 1009.9
20260506130140 74 0.0 0.0 0.00 0.00 0.00 57 1010.3
20260506121634 73 0.0 0.0 0.00 0.00 0.00 58 1010.5
20260506104624 72 0.0 0.0 0.00 0.00 0.00 60 1011.2